Theta_e
282 281 277 278 274 275 276 278 274 280 279 281 282 281 282 283 285 285 286 287 286 286 286 285 285 285 286 287 287 289 289 288 289 289 289 288 287 287 286 286 285 285 284 284
281 283 284 279 278 278 278 278 278 279 278 282 282 281 282 284 284 284 285 286 288 288 287 286 287 286 286 286 286 287 288 289 289 287 287 287 287 286 285 285 284 284 284 283
277 281 280 274 280 280 277 277 278 275 280 283 284 284 283 282 282 282 283 284 284 286 288 289 289 288 287 287 285 286 287 287 287 287 287 286 286 285 285 284 284 283 282 280
276 276 271 281 285 285 283 285 284 284 286 280 279 280 279 279 278 279 280 281 282 283 284 286 287 287 286 285 284 286 286 286 287 286 286 285 285 285 284 283 283 282 279 277
273 273 277 280 278 277 278 275 275 275 276 276 277 279 278 279 279 278 279 280 279 280 281 284 285 285 285 284 284 284 284 285 286 286 286 285 284 284 283 281 277 278 275 275
274 272 269 275 276 278 277 272 274 275 274 274 276 275 274 278 278 277 278 278 278 278 279 281 282 282 282 283 283 283 285 286 286 286 286 285 285 283 279 280 282 282 277 275
274 272 271 275 276 277 273 270 275 275 274 274 273 274 277 278 276 277 277 276 277 276 277 278 278 279 281 282 281 283 282 282 284 285 285 285 284 282 280 280 278 280 276 275
270 269 267 276 275 271 273 276 275 274 274 274 275 275 276 276 276 275 274 275 275 273 275 276 276 277 278 279 281 281 280 280 281 282 284 284 283 280 281 280 279 280 280 277
269 270 275 276 275 277 277 276 275 273 273 272 271 272 272 274 274 273 273 273 273 271 273 272 273 274 276 277 280 280 279 279 279 280 283 283 282 281 280 281 281 281 280 279
268 273 273 273 273 273 274 273 273 272 271 271 269 271 271 272 272 272 272 271 270 270 270 269 271 272 273 275 278 279 278 277 276 278 278 281 283 282 282 281 281 280 280 279
270 273 272 270 269 270 271 271 270 270 269 269 269 269 270 269 269 269 269 269 268 268 268 267 268 269 271 272 274 276 279 276 275 277 278 280 282 283 283 284 284 282 282 281
267 267 268 269 268 267 267 266 267 266 266 267 267 267 267 266 266 266 265 266 266 265 264 265 265 268 270 270 272 273 276 279 276 276 276 278 279 278 286 286 286 287 285 283
262 262 264 267 266 264 264 264 264 263 264 263 265 265 263 262 263 263 262 263 263 262 263 263 263 265 266 267 270 270 272 277 279 277 277 278 280 280 280 282 286 286 287 286
260 260 264 263 263 262 263 262 261 260 261 262 262 261 261 260 260 259 259 261 260 260 260 260 262 262 264 265 266 268 270 274 278 280 279 280 280 281 281 281 281 282 286 286
259 258 258 260 260 260 260 259 257 258 260 260 260 259 258 257 257 257 258 257 257 256 257 260 259 260 262 263 264 266 268 273 275 278 280 280 280 280 280 282 282 281 279 285
257 257 257 256 257 258 256 254 254 255 256 257 256 257 257 256 255 254 254 255 254 255 256 257 257 259 261 261 262 264 268 269 272 275 278 280 280 280 281 281 282 282 281 282
251 253 250 252 254 254 254 254 254 254 254 254 254 254 253 252 252 252 253 254 254 254 255 256 256 259 260 261 262 262 264 266 268 272 276 278 280 281 281 281 281 281 281 282
254 255 254 253 252 252 253 253 253 252 252 252 252 251 250 249 249 250 251 251 252 252 254 256 257 258 259 261 260 260 262 264 267 269 274 277 277 280 281 281 281 280 281 280
249 251 251 251 251 251 251 250 250 251 251 250 249 249 249 249 249 249 250 249 249 249 252 254 259 260 257 258 260 261 262 264 265 269 270 272 275 279 279 280 280 280 281 280
248 249 250 250 250 248 249 250 249 248 249 248 247 247 247 248 248 248 249 248 250 252 253 253 253 253 255 258 260 259 260 262 264 266 269 271 273 277 279 280 280 280 281 281
251 252 252 252 252 252 251 251 250 249 248 247 246 247 247 248 248 248 247 247 249 250 251 252 253 254 255 256 257 259 261 262 264 265 266 269 270 273 279 280 280 280 281 281
253 253 253 253 254 254 254 253 251 250 249 248 248 247 247 246 247 247 248 248 251 252 252 252 253 253 255 257 257 259 259 260 261 264 265 267 269 270 271 278 281 281 282 282
252 252 252 253 252 252 252 252 251 250 249 248 248 248 247 248 248 247 247 250 251 252 252 253 254 256 257 257 257 258 259 260 262 263 265 267 268 269 271 272 277 282 283 283
252 252 252 251 250 250 249 250 250 250 250 250 250 250 249 249 249 250 251 251 252 253 253 254 255 260 259 258 258 259 260 261 262 263 265 266 268 269 271 272 273 278 283 283
253 252 251 250 249 250 250 251 251 252 252 252 253 253 254 254 251 252 253 253 254 255 255 256 259 260 258 258 259 259 260 261 262 263 265 265 266 268 270 272 274 275 281 283
252 252 251 251 251 251 251 252 251 252 252 252 253 254 255 255 256 255 255 255 255 255 255 255 256 257 257 258 259 259 260 261 262 263 264 265 266 267 269 271 273 276 279 283
252 252 251 251 252 252 252 252 251 251 253 253 253 254 255 256 256 257 257 257 257 257 257 258 258 258 259 259 260 260 261 261 262 263 264 265 267 268 270 272 274 276 280 284
Wind_Speed
21 10 3 6 5 10 14 24 9 24 16 7 8 0 1 3 6 6 7 7 6 7 7 7 7 7 7 8 8 9 10 10 13 11 11 10 11 10 9 9 8 8 7 6
13 20 23 17 12 12 23 25 19 29 21 9 6 3 5 7 8 10 10 10 12 12 10 7 8 7 6 7 8 8 11 14 10 10 11 12 10 10 10 9 8 8 8 7
20 15 12 12 23 22 7 8 15 16 22 6 11 7 12 15 14 14 17 17 15 16 14 12 12 8 9 12 8 11 11 10 11 12 12 12 11 11 11 11 8 9 7 7
7 5 21 7 12 21 25 25 14 17 17 11 8 4 11 14 14 15 17 18 19 17 18 17 17 13 9 5 8 11 12 11 11 12 13 11 12 12 10 8 11 8 8 7
4 6 3 6 5 4 6 4 11 8 12 12 12 4 6 15 13 12 12 11 12 13 16 16 16 17 16 8 8 8 9 12 13 13 13 13 14 13 10 9 6 6 5 7
4 5 7 4 5 6 5 5 9 10 11 15 13 4 4 14 13 12 11 11 12 15 14 15 18 19 15 12 8 9 13 15 12 14 15 15 14 13 6 6 8 7 7 7
13 10 1 13 10 5 4 5 4 5 5 8 6 2 10 11 12 10 9 13 15 14 12 13 15 18 17 15 10 8 5 4 8 12 13 13 12 8 10 8 6 7 6 5
6 5 2 15 5 6 5 4 2 0 2 5 4 7 9 10 11 14 15 15 14 15 15 14 15 15 17 16 18 13 4 5 6 8 8 9 12 9 10 10 9 8 7 4
4 3 1 6 10 6 3 2 2 4 8 9 9 9 12 12 12 12 12 14 12 13 14 13 15 15 16 18 18 16 7 5 2 5 7 9 12 11 9 9 8 8 7 6
4 4 4 4 6 7 7 6 5 6 8 9 10 12 12 11 12 12 12 14 14 14 13 14 15 15 13 16 18 16 10 4 2 2 3 4 5 8 9 9 8 7 8 7
3 6 6 3 4 4 4 5 7 7 8 9 10 12 11 11 12 13 15 13 13 14 13 15 15 16 15 16 17 16 12 6 3 1 2 4 4 7 8 9 11 10 9 7
3 5 4 5 5 5 3 5 7 11 12 9 10 11 12 10 10 11 13 15 13 13 13 14 14 15 15 15 15 15 11 9 4 2 2 1 3 1 10 8 13 13 10 9
2 4 4 7 6 8 6 7 8 9 11 16 12 9 9 10 11 13 12 13 13 16 16 13 12 14 14 14 14 14 11 11 9 5 3 2 3 5 7 7 13 17 16 14
4 7 3 3 2 10 8 9 9 8 9 10 10 8 9 10 9 8 10 12 14 14 14 12 12 14 13 14 15 15 12 13 7 7 4 4 4 6 5 7 9 8 16 14
5 3 5 8 9 6 4 6 8 11 12 10 8 10 10 12 12 12 12 12 14 14 12 11 13 15 12 13 13 13 12 9 10 8 4 3 4 6 6 7 7 5 3 11
8 8 7 6 9 8 5 5 8 11 9 10 11 12 12 13 14 14 12 11 11 14 14 12 14 14 12 12 13 11 9 14 14 10 7 4 4 7 7 8 8 7 7 7
4 6 4 5 6 9 10 9 9 11 12 11 13 13 13 13 15 15 12 8 11 15 14 13 17 14 13 11 12 7 9 10 13 11 8 5 4 8 8 7 7 7 6 7
6 9 8 10 12 13 13 11 11 11 12 13 12 12 13 13 16 16 14 12 13 16 14 13 15 13 12 10 9 8 8 11 10 10 8 6 5 7 8 8 7 7 6 8
6 10 11 11 12 12 12 11 12 12 11 12 12 14 14 14 14 16 14 14 15 16 13 8 12 15 12 13 12 8 8 10 12 9 9 9 10 7 9 8 7 7 8 8
9 8 11 12 10 9 14 13 12 11 10 10 12 13 15 14 13 14 13 18 17 13 13 15 13 12 12 12 13 8 9 10 13 10 9 9 8 9 10 10 8 7 10 10
11 12 13 13 14 13 13 12 12 13 13 10 12 15 16 15 13 13 14 14 11 9 11 12 10 10 9 10 9 9 9 9 8 9 8 8 7 8 9 7 7 9 10 9
11 11 13 14 14 14 12 11 11 12 12 13 14 14 14 15 14 14 15 17 13 18 13 11 9 11 10 13 9 10 9 10 10 11 9 9 8 7 8 9 9 10 10 9
11 12 12 12 12 14 14 13 13 12 13 14 14 15 13 11 10 11 13 10 9 11 10 10 12 16 17 11 10 10 11 11 10 11 10 10 7 8 9 8 11 8 8 9
11 11 11 9 9 11 14 13 12 12 13 14 14 14 13 10 10 10 12 17 21 19 14 13 15 19 19 10 10 11 11 11 11 11 10 14 10 9 9 8 9 12 8 9
10 10 10 9 10 10 12 12 12 12 13 13 14 13 14 10 11 12 10 11 17 17 14 17 20 21 13 11 11 11 11 11 11 11 10 10 10 10 10 9 9 10 12 9
10 8 8 10 10 10 9 9 9 10 10 11 11 10 10 10 10 11 12 15 14 15 13 12 12 12 11 11 12 12 12 12 12 12 12 11 11 11 11 11 10 10 12 10
7 9 7 8 7 8 8 9 10 11 10 10 13 11 11 11 12 13 14 12 12 12 12 12 12 13 12 12 12 12 12 12 14 12 12 11 11 11 9 9 9 10 12 10
Wind_Direction
230 210 202 193 171 183 204 235 200 251 241 237 269 231 4 345 315 334 335 321 284 278 265 248 242 229 221 218 186 177 183 191 207 194 190 183 180 179 172 171 180 178 179 190
236 233 241 233 216 217 207 227 248 267 275 271 313 309 341 316 345 2 4 337 321 321 310 266 251 258 255 239 214 174 191 207 195 181 181 188 181 174 170 177 179 176 186 186
237 235 232 236 221 219 187 210 210 237 251 285 274 334 23 16 23 14 358 353 357 349 324 302 292 247 221 226 186 190 206 205 190 186 187 187 175 172 180 185 173 185 185 179
247 158 226 221 212 218 222 236 243 261 285 357 15 15 60 32 18 9 358 350 350 344 336 330 320 307 280 233 196 199 200 199 195 186 188 177 172 182 179 171 183 183 184 188
255 235 324 307 52 80 169 98 26 350 356 345 334 245 83 26 18 5 346 344 336 335 328 328 336 330 316 276 219 199 203 210 200 188 182 177 184 181 178 167 168 172 173 185
240 249 229 49 347 316 210 138 24 22 17 1 355 79 356 349 351 346 345 352 343 340 337 348 346 338 323 306 267 231 221 219 196 186 185 186 184 177 155 166 180 172 191 200
225 233 204 337 308 305 201 74 50 44 22 15 31 332 297 318 330 337 341 348 350 347 349 349 346 343 343 333 304 289 273 188 184 187 189 180 168 162 159 164 144 173 189 192
334 318 206 340 31 48 111 140 140 274 339 325 317 313 323 328 337 340 342 349 358 346 342 345 350 350 349 344 330 312 253 184 183 178 175 163 161 152 157 157 165 180 189 212
29 11 40 48 113 112 91 110 36 336 351 340 330 335 330 327 337 343 344 341 349 343 333 340 349 348 345 336 334 325 310 292 211 163 167 164 161 161 159 168 177 186 193 211
38 139 154 100 53 42 31 27 5 353 334 333 323 325 322 328 332 335 343 338 339 331 337 337 341 339 334 332 332 332 330 319 322 157 134 162 168 168 168 174 180 186 194 209
247 84 101 99 76 44 25 7 343 340 334 329 325 317 320 328 330 333 332 332 328 326 332 332 336 328 330 336 335 329 340 325 310 305 193 165 191 187 194 197 190 189 202 190
228 32 340 72 97 39 15 357 341 338 328 330 324 317 327 321 325 323 323 315 313 329 326 324 328 322 327 333 332 320 340 341 296 250 211 180 185 233 225 211 197 198 175 180
44 329 308 321 114 34 352 339 336 324 317 314 314 322 314 309 315 315 306 311 317 319 316 315 314 316 321 321 322 316 341 326 320 257 180 178 210 214 219 231 215 212 207 206
30 317 226 35 328 336 328 326 323 301 285 287 303 311 310 306 303 294 300 309 307 305 307 312 317 311 319 323 319 327 317 296 303 286 223 179 220 230 219 214 212 214 218 213
16 8 259 295 299 295 310 299 300 302 308 304 306 306 310 307 304 302 305 299 298 296 297 312 310 304 316 309 315 310 305 320 322 304 280 218 214 235 227 228 230 210 141 210
308 287 264 245 273 281 276 279 276 288 289 293 297 297 295 297 295 291 289 292 293 303 305 303 297 294 307 309 305 303 317 314 307 300 302 277 231 236 228 228 233 223 202 203
331 327 319 281 285 294 290 282 275 281 286 278 276 282 287 288 288 287 284 276 280 281 287 288 284 293 296 296 296 320 311 302 300 294 279 273 246 247 239 219 227 233 221 205
234 265 268 265 280 283 282 274 274 272 270 277 277 275 272 271 273 285 291 293 286 282 274 269 273 281 282 290 300 298 295 287 286 285 292 287 258 246 240 230 207 227 231 209
236 261 265 257 259 265 271 270 263 266 271 270 275 272 271 269 272 275 283 279 277 282 292 235 272 291 291 291 289 284 286 283 281 275 290 285 283 257 249 235 227 202 228 212
270 254 260 266 266 255 270 266 267 269 267 265 267 271 273 271 269 272 272 267 262 266 280 278 277 277 276 276 286 280 273 275 274 277 273 265 261 267 243 229 222 210 225 216
274 278 274 274 274 270 262 270 275 272 272 262 262 270 271 276 271 269 272 273 282 249 253 258 256 268 272 274 275 273 269 266 284 292 291 291 302 300 259 235 226 220 224 218
291 294 291 292 292 292 288 278 269 271 273 274 271 269 272 274 274 267 254 257 278 275 273 271 265 257 257 265 269 269 269 268 263 263 267 267 266 278 286 290 226 222 218 212
286 286 286 288 291 291 294 289 282 273 271 269 269 269 266 266 269 274 280 263 254 260 259 261 263 264 266 265 265 264 262 263 263 265 267 265 263 265 265 267 287 234 222 211
287 291 289 289 289 290 289 289 284 277 271 270 266 263 265 272 271 252 254 264 268 268 266 268 268 269 268 262 258 259 261 260 259 260 259 264 263 257 255 256 265 281 233 213
294 298 297 294 290 288 288 292 294 292 287 282 278 276 267 254 247 273 270 268 269 272 273 271 271 270 267 262 258 254 255 256 256 254 250 251 254 254 254 249 247 253 267 223
300 300 297 289 285 290 290 293 291 294 295 293 290 288 284 278 273 268 271 269 266 267 264 265 263 262 256 253 252 251 249 252 253 253 251 251 251 251 252 249 244 258 249 241
303 302 302 302 301 301 300 298 298 298 296 295 293 294 289 286 283 281 275 271 271 268 263 261 260 261 257 255 253 251 248 247 248 248 248 249 248 250 251 245 244 248 258 225